Showing default

COSMOS 2268, 22999

Orbit data source: Space-Track

COSMOS 2268, 22999 is a payload satellite owned by VKS (CIS) in LEO that was launched on Sat, 12 Feb 1994 UTC via a TSIKLON-3 launch vehicle from the Plesetsk Missile And Space Complex (PKMTR). Payload-class satellites include a variety of spacecraft equipped with specific instruments for various scientific and technological missions. These include communications satellites like Starlink; space stations such as the ISS; scientific satellites like the Hubble; Earth observation satellites from companies like Planet Labs, Umbra, and HawkEye 360; GPS; miniature CubeSats for education and research; and military/defense satellites.

Loading next visibility...
Identifier
22999, 1994-011A
Orbit
LEO
Country
Flag of CISCIS
Related business
Manufacturer
NPO PM
Mission
Defense Communications
Bus & Motor
STRELA-3, Unknown motor
Mass
225 kg wet, 225 kg dry
Launch date (UTC)
1994-02-12 (32 years ago)
Launch vehicle
TSIKLON-3
Launch site
Plesetsk Missile And Space Complex (PKMTR)
Object type
Payload
Rocket body
Debris
Shape & HBR
Cyl, 0.8 m
Radar Cross Section
1.257 m², Medium (>0.1 m² and < 1m²)

Expand to show TLE details & history
Last TLE update: 14 hours ago

TLE from 14 hours ago
0 COSMOS 2268
1 22999U 94011A   25304.58834139  .00000049  00000-0  21676-3 0  9999
2 22999  82.5728 126.1395 0010233   3.6300  58.7755 12.61220834459940
Epoch: 2025-10-31T14:07Z
TLE epoch observation values (Epoch: 2025-10-31T14:07:12.696Z)
Latitude
61.68212°
Longitude
-111.86437°
Altitude
1,424.296 km
Speed
7.156 km/s
True Right ascension
09h 20m 16s
True Declination
61° 33' 02"
Sunlit
Object was in daylight at epoch
Visualization orbit readout
Latitude
Unknown
Longitude
Unknown
Altitude
Unknown
Speed
Unknown
Apparent Right ascension
Unknown
Apparent Declination
Unknown
Sunlit
N/A
Visualization observer readout
Local Sidereal Time
23:52:31
Azimuth
Unknown
Elevation
Unknown
Doppler factor
Unknown
Orbital elements
Apogee altitude
1,423.207 km
Perigee altitude
1,407.257 km
Semi-major axis
7,793.369 km
Eccentricity
0.00102
Inclination
82.5728°
RAAN
126.1395°
Arg. of periapsis
3.63°
True anomaly
58.87584°
Mean anomaly
58.7755°
Eccentric anomaly
58.82566°
Mean motion
3.15468 °/min
Orbital period
114.12 mins
BSTAR
0.00021676
Loading maneuver chart data...
Computing Atmospheric mass density...
Loading historical data...
Loading historical data...
Loading historical data...
Loading historical data...
Loading historical data...
Loading historical data...
Loading historical data...

Documentation

Showing up to 5 results
|